Regional Weather Roundup
Issued by NWS

Home | Current Version | Previous Version | Text Only | Print | Product List | Glossary Off
Versions: 1 2 3 4 5 6 7 8 9 10 11 12 13 14 15 16 17 18 19 20 21 22 23 24 25 26 27 28 29 30 31 32 33 34 35 36 37 38 39 40 41 42 43 44 45 46 47 48 49 50

000
ASUS43 KIND 310959
RWRIN

WEATHER ROUNDUP FOR INDIANA
NATIONAL WEATHER SERVICE INDIANAPOLIS IN
600 AM EDT FRI JUL 31 2015

NOTE: "FAIR" INDICATES FEW OR NO CLOUDS BELOW 12,000 FEET WITH NO
SIGNIFICANT WEATHER AND/OR OBSTRUCTIONS TO VISIBILITY.

* - STATION DOES NOT REPORT WEATHER SUCH AS PRECIPITATION OR FOG.

+ - STATION NOT QUALITY CONTROLLED BY THE NATIONAL WEATHER SERVICE.
    USE DATA WITH CAUTION...ESPECIALLY DEWPOINT AND RELATIVE
    HUMIDITY OBSERVATIONS.

INZ001>003-010>013-019-020-311100-
NORTHWEST INDIANA

CITY           SKY/WX    TMP DP  RH WIND       PRES   REMARKS
GARY /AIRPORT/ CLEAR     66  63  88 SW7       30.03F
RENSSELAER +   CLEAR     63  63 100 SW5       30.05S

$$

LMZ046-743>745-311100-
SOUTHERN LAKE MICHIGAN

STATION/POSITION TIME  TEMP    WIND        PRES    WAVE
                       AIR SEA DIR/SP/G            HT
                 (UTC) (F)     (DEG/KT/KT) (MB)    (FT)
BURNS HARBOR     0900   74     240/  8/ 10 1016.9F
MICHIGAN CITY    0900   74     230/ 11/ 12   N/A
5NW MICH CITY    0900   75 74  290/ 10/ 12   N/A     2

$$

INZ004-005-014>016-021>024-311100-
NORTH CENTRAL INDIANA

CITY           SKY/WX    TMP DP  RH WIND       PRES   REMARKS
GOSHEN         CLEAR     63  59  87 CALM      30.01S
SOUTH BEND     CLEAR     66  61  84 W7        30.02S

$$

INZ006>009-017-018-025>027-311100-
NORTHEAST INDIANA

CITY           SKY/WX    TMP DP  RH WIND       PRES   REMARKS
ANGOLA *+      CLEAR     64  61  88 NW3       30.00F
FORT WAYNE     CLEAR     66  62  87 W8        30.01F

$$

INZ028-029-035-036-043>045-051>053-311100-
WEST CENTRAL INDIANA

CITY           SKY/WX    TMP DP  RH WIND       PRES   REMARKS
CRAWFORDSVL +  CLEAR     62  62 100 W5          N/A
LAFAYETTE      CLEAR     63  62  97 CALM      30.05S FOG
TERRE HAUTE    CLEAR     68  64  87 NW3       30.06S

$$

INZ030>032-037>040-046>048-054>057-064-065-311100-
CENTRAL INDIANA

CITY           SKY/WX    TMP DP  RH WIND       PRES   REMARKS
GREENWOOD *+   CLEAR     63  59  88 CALM      30.05F
INDIANAPOLIS   CLEAR     69  62  78 W6        30.03S
-EAGLE CREEK   CLEAR     72  64  76 NW12      30.04S
KOKOMO *+      CLEAR     66  61  82 W7        30.04S
MT COMFORT *+  CLEAR     63 N/A N/A CALM      30.04F
SHELBYVILLE    CLEAR     65  61  87 SW5       30.04F

$$

INZ033-034-041-042-049-050-058-059-311100-
EAST CENTRAL INDIANA

CITY           SKY/WX    TMP DP  RH WIND       PRES   REMARKS
MUNCIE         CLEAR     65  61  87 W8        30.03F

$$

INZ060-061-067>069-081>083-085>088-311100-
SOUTHWEST INDIANA

CITY           SKY/WX    TMP DP  RH WIND       PRES   REMARKS
EVANSVILLE     CLEAR     72  64  76 NW7       30.07S
HUNTINGBURG *+ CLEAR     64  63  94 CALM      30.07R

$$

INZ062-063-066-070>080-084-089>092-311100-
SOUTH CENTRAL AND SOUTHEAST INDIANA

CITY           SKY/WX    TMP DP  RH WIND       PRES   REMARKS
BLOOMINGTON    CLEAR     62  60  93 CALM      30.06S
MADISON *+     CLEAR     61  61 100 CALM      30.08S
SEYMOUR +      FOG       61  61 100 CALM      30.05S VSB 1/2

$$



USA.gov is the U.S. government's official web portal to all federal, state and local government web resources and services.